Погода в Дестине

США     30°23′49″N   86°29′02″W
темп.,
°C
ветер,
м/с
пор.,
м/с
влажн.,
%
обл.,
%
осадки,
мм/ч
давл.,
гПа
погр.,
м
15 мая, сб
сб1523:00+18св34570 0.0 102372
02:00+16всв37670 0.0 1022154
05:00+15всв35700 0.0 1022133
08:00+15всв38670 0.0 1024257
11:00+23вюв45380 0.0 10251020
14:00+26вюв34332 0.0 10231860
17:00+26юв233248 0.0 10211905
20:00+21ююз115720 0.0 102149
16 мая, вс
вс1623:00+19юз1161100 0.0 102260
02:00+17ссв356590 0.0 102199
05:00+16вюв3768100 0.0 1022231
08:00+19вюв48785 0.0 1023374
11:00+24юв56545 0.0 10251139
14:00+25ююв554310 0.0 10231321
17:00+25ю544941 0.0 1021868
20:00+22ю35654 0.0 1021250
17 мая, пн
пн1723:00+19вюв12694 0.0 102151
02:00+18в226991 0.0 102037
05:00+17в357294 0.0 1020163
08:00+20вюв388190 0.0 1020336
11:00+25юв67613 0.0 10211177
14:00+26ююв675592 0.0 10211195
17:00+25ююв55579 0.0 1019863
20:00+22ююв35719 0.0 1020393
18 мая, вт
вт1823:00+20ююв11795 0.0 102027
02:00+19в227721 0.0 101943
05:00+18в367710 0.0 1019152
08:00+20вюв49812 0.0 1020345
11:00+25юв68583 0.0 10211013
14:00+27ююв67540 0.0 10211307
17:00+26ююв57584 0.0 1020860
20:00+23ююз11740 0.0 101838
19 мая, ср
ср1923:00+21в227844 0.0 102030
02:00+21в38724 0.0 1019215
05:00+20в511701 0.0 1019565
08:00+20в511784 0.0 1021647
11:00+25вюв685910 0.0 10221182
14:00+28ююв68502 0.0 10211598
17:00+27ююв57552 0.0 1019809
20:00+24вюв236535 0.0 102094